Location: Crescent
(42.8242°N, 73.7329°W)
Time: 18:28:36
(UTC+00:00)

Altair - Visible Passes

Search period start: 18 February 2026 00:00
Search period end: 28 February 2026 00:00
Orbit: 1502 x 1682 km, 47.2° (Epoch: 18 February)

Date Brightness Start Highest point End Pass type
(mag) Time Alt. Az. Time Alt. Az. Time Alt. Az.
18 Feb 9.3 07:02:22 16° ESE 07:02:22 16° ESE 07:05:35 10° E visible
18 Feb 7.7 09:00:24 43° SSW 09:03:17 58° SE 09:12:25 10° ENE visible
18 Feb 7.6 10:58:37 10° W 11:07:53 75° NNW 11:17:30 10° ENE visible
19 Feb 9.5 06:38:44 12° E 06:38:44 12° E 06:39:49 10° E visible
19 Feb 7.7 08:36:45 51° S 08:38:07 55° SE 08:47:07 10° ENE visible
19 Feb 7.5 10:34:48 16° WSW 10:42:37 77° NNW 10:52:12 10° ENE visible
20 Feb 7.8 08:13:03 51° SE 08:13:03 51° SE 08:21:50 10° ENE visible
20 Feb 7.4 10:11:05 24° WSW 10:17:21 80° NNW 10:26:54 10° ENE visible
21 Feb 8.1 07:49:16 44° ESE 07:49:16 44° ESE 07:56:32 10° ENE visible
21 Feb 7.4 09:47:17 33° WSW 09:52:06 82° NNW 10:01:37 10° ENE visible
22 Feb 8.4 07:25:27 35° E 07:25:27 35° E 07:31:14 10° ENE visible
22 Feb 7.3 09:23:28 46° WSW 09:26:51 85° NNW 09:36:19 10° ENE visible
23 Feb 8.8 07:01:35 27° E 07:01:35 27° E 07:05:55 10° ENE visible
23 Feb 7.3 08:59:35 61° WSW 09:01:37 88° NNW 09:11:04 10° ENE visible
23 Feb 7.7 10:57:40 10° W 11:06:54 68° N 11:16:26 10° E visible
24 Feb 9.1 06:37:40 21° E 06:37:40 21° E 06:40:36 10° ENE visible
24 Feb 7.2 08:35:40 79° WSW 08:36:22 89° SSE 08:45:47 10° ENE visible
24 Feb 7.6 10:33:41 15° W 10:41:36 68° N 10:51:07 10° E visible
25 Feb 9.4 06:13:43 15° E 06:13:43 15° E 06:15:14 10° ENE visible
25 Feb 7.3 08:11:44 80° E 08:11:44 80° E 08:20:31 10° ENE visible
25 Feb 7.6 10:09:44 22° W 10:16:18 68° N 10:25:47 10° E visible
26 Feb 9.6 05:49:45 10° ENE 05:49:45 10° ENE 05:49:53 10° ENE visible
26 Feb 7.6 07:47:45 62° E 07:47:45 62° E 07:55:15 10° ENE visible
26 Feb 7.6 09:45:45 29° W 09:51:01 68° N 10:00:27 10° E visible
27 Feb 8.0 07:23:46 48° ENE 07:23:46 48° ENE 07:30:00 10° ENE visible
27 Feb 7.5 09:21:46 38° WNW 09:25:44 69° N 09:35:08 10° ENE visible
